Regional Weather Roundup
Issued by NWS Little Rock, AR

Home | Current Version | Previous Version | Graphics & Text | Print | Product List | Glossary On
Versions: 1 2 3 4 5 6 7 8 9 10 11 12 13 14 15 16 17 18 19 20 21 22 23 24 25 26 27 28 29 30 31 32 33 34 35 36 37 38 39 40 41 42 43 44 45 46 47 48
000
ASUS44 KLZK 010105
RWRLZK

WEATHER ROUNDUP FOR ARKANSAS
NATIONAL WEATHER SERVICE LITTLE ROCK AR
700 PM CST SAT FEB 28 2015

NOTE: "FAIR" INDICATES FEW OR NO CLOUDS BELOW 12,000 FEET WITH NO
SIGNIFICANT WEATHER AND/OR OBSTRUCTIONS TO VISIBILITY.

ARZ001-003-010-029-010200-
NORTHWEST ARKANSAS

CITY           SKY/WX    TMP DP  RH WIND       PRES   REMARKS
FAYETTEVILLE   CLOUDY    29  29 100 CALM      30.33F FOG
FORT SMITH     CLOUDY    29  26  89 E9        30.38R FOG     WCI  20
HARRISON       MIX PCPN  25  23  92 SE8       30.37R FOG     WCI  16
BENTONVILLE    CLOUDY    27  23  86 E9        30.33F WCI  17
ROGERS         FLURRIES  25  23  92 E8        30.34S WCI  16
SILOAM SPGS    CLOUDY    28  23  80 CALM      30.35R
HIGHFILL       CLOUDY    28  26  92 E6        30.33R FOG     WCI  22
$$

ARZ004-005-016-010200-
NORTH CENTRAL ARKANSAS

CITY           SKY/WX    TMP DP  RH WIND       PRES   REMARKS
BATESVILLE     CLOUDY    30  21  69 N5        30.45R WCI  25
FLIPPIN        CLOUDY    27  21  80 CALM      30.41R
MTN HOME       MIX PCPN  26  24  92 E6        30.40S WCI  19
$$

ARZ040-041-010200-
WEST CENTRAL ARKANSAS

CITY           SKY/WX    TMP DP  RH WIND       PRES   REMARKS
MENA           CLOUDY    34  32  93 E3        30.34R
MOUNT IDA      CLOUDY    33  29  85 VRB3      30.33R
$$

ARZ009-017-025-026-028-010200-
NORTHEAST ARKANSAS

CITY           SKY/WX    TMP DP  RH WIND       PRES   REMARKS
CORNING        CLOUDY    28  23  80 NE12      30.46F WCI  18
JONESBORO      CLOUDY    30  23  75 N7        30.42F WCI  23
NEWPORT        CLOUDY    29  24  81 N10       30.46R WCI  20
WALNUT RIDGE   FAIR      28  21  74 N9        30.44F WCI  20
BLYTHEVILLE    CLOUDY    33  27  78 N13       30.42S WCI  24
$$

ARZ022-023-033-042-044-010200-
CENTRAL ARKANSAS

CITY           SKY/WX    TMP DP  RH WIND       PRES   REMARKS
LITTLE ROCK    CLOUDY    37  23  56 NE7       30.40S
N LITTLE ROCK  CLOUDY    36  26  66 NE8       30.40S
JACKSONVILLE   FAIR      35  23  62 NE8       30.40S WCI  28
SEARCY         CLOUDY    33  23  66 NE9       30.45R WCI  25
HOT SPRINGS    CLOUDY    37  26  64 E8        30.36S
RUSSELLVILLE   MIX PCPN  32  27  81 N3        30.39S
CLINTON        LGT RAIN  32  28  86 CALM      30.43F
$$

ARZ036-010200-
EAST ARKANSAS

CITY           SKY/WX    TMP DP  RH WIND       PRES   REMARKS
WEST MEMPHIS   MOCLDY    33  27  78 N9        30.36F WCI  25
$$

ARZ050-053-066-070-073-010200-
SOUTHWEST ARKANSAS

CITY           SKY/WX    TMP DP  RH WIND       PRES   REMARKS
ARKADELPHIA    FAIR      38  27  65 NE6       30.38R
CAMDEN         CLOUDY    39  25  56 MISG      30.35S
TEXARKANA      CLOUDY    39  28  64 NE6       30.33S
EL DORADO      CLOUDY    44  33  65 NE6       30.32F
DE QUEEN       CLOUDY    34  31  88 NE5       30.34R FOG     WCI  30
$$

ARZ056-057-069-010200-
SOUTHEAST ARKANSAS

CITY           SKY/WX    TMP DP  RH WIND       PRES   REMARKS
PINE BLUFF     CLOUDY    36  28  73 N8        30.39S
STUTTGART      CLOUDY    36  27  69 N9        30.40F
MONTICELLO     CLOUDY    44  32  62 N3        30.36R

$$




USA.gov is the U.S. government's official web portal to all federal, state and local government web resources and services.